User: anonymous   Login
Location: Unspecified
(0.0000°N, 0.0000°E)
Time: 22:18:02
(UTC+00:00)
Language:

Mayak - Orbit

View from above orbital plane
View from above orbital plane
View from above satellite
View from above satellite

Ground track
Ground track

The orbit data is extracted from the following two-line orbital elements,

1 42830U 17042F   17347.49343262  .00000996  00000-0  10597-3 0  9995
2 42830  97.6086 251.7296 0015870  93.3930 266.9105 14.91009107 22662
Epoch (UTC): 13 December 2017 11:50:32
Eccentricity: 0.0015870
inclination: 97.6086°
perigee height: 584 km
apogee height: 606 km
right ascension of ascending node: 251.7296°
argument of perigee: 93.3930°
revolutions per day: 14.91009107
mean anomaly at epoch: 266.9105°
orbit number at epoch: 2266

The dashed part of the orbit path shows where the satellite is in the earth's shadow,  

DLR